Regional Weather Roundup
Issued by NWS Kansas City/Pleasant Hill, MO

Home | Current Version | Previous Version | Graphics & Text | Print | Product List | Glossary Off
Versions: 1 2 3 4 5 6 7 8 9 10 11 12 13 14 15 16 17 18 19 20 21 22 23 24 25 26 27 28 29 30 31 32 33 34 35 36 37 38 39 40 41 42 43 44 45 46 47 48 49 50

000
ASUS43 KEAX 271711
RWREAX

WEATHER ROUNDUP FOR EASTERN KANSAS AND NORTHWEST MISSOURI
NATIONAL WEATHER SERVICE KANSAS CITY/PLEASANT HILL MO
1200 PM CDT WED MAY 27 2015

KSZ040-057-103>105-MOZ028-029-037-043-271800-
...KANSAS CITY METROPOLITAN AREA...

CITY           SKY/WX    TMP DP  RH WIND       PRES   REMARKS
K.C. INTL      MOSUNNY   77  54  44 CALM      30.11R
K.C. DOWNTOWN  SUNNY     79  56  45 VRB3      30.09S
LEES SUMMIT    SUNNY     78  54  43 N7        30.11R
OLATHE - IXD   SUNNY     78  53  41 E5        30.11R
OLATHE - OJC   SUNNY     77  54  44 E6        30.10R
LAWRENCE       SUNNY     78  54  43 E8        30.10S

$$

MOZ001>008-011>017-020>025-030>033-038>040-044>046-053-054-271800-
...NORTHERN AND CENTRAL MISSOURI...

CITY           SKY/WX    TMP DP  RH WIND       PRES   REMARKS
ST. JOSEPH     SUNNY     78  55  44 CALM      30.10R
MOSBY          SUNNY     75  52  43 NE3       30.10S
WARRENSBURG    SUNNY     77  55  47 E3        30.10R
WHITEMAN AFB   SUNNY     76  56  49 NE8       30.10R
CLINTON        SUNNY     77  57  50 NE3       30.12R
SEDALIA        SUNNY     78  57  48 W7        30.12R
WARSAW         NOT AVBL
CHILLICOTHE      N/A     77  60  55 CALM      30.10R
KIRKSVILLE     SUNNY     75  60  59 W9        30.09R

$$

MOZ041-047>049-056>058-063>065-088>090-097-271800-
...EASTERN AND SOUTHERN MISSOURI...

CITY           SKY/WX    TMP DP  RH WIND       PRES   REMARKS
ST. LOUIS INTL MOSUNNY   79  63  57 VRB7      30.07S
SPIRIT OF STL  MOSUNNY   78  64  61 W9        30.05F
COLUMBIA       SUNNY     78  55  44 NW13      30.09S
JEFFERSON CITY SUNNY     78  53  41 W12       30.08S
ROLLA          MOSUNNY   74  65  73 W6        30.09S
SPRINGFIELD    SUNNY     77  64  64 SW5       30.12S
BRANSON        MOSUNNY   77  64  65 NW3       30.14S
JOPLIN         PTSUNNY   79  66  64 N3        30.12R
WEST PLAINS    MOSUNNY   75  65  70 CALM      30.14S

$$

IAZ060-094-KSZ022-034>040-054-083-096-NEZ052-066-093-271800-
...KANSAS...SOUTHEAST NEBRASKA AND IOWA...

CITY           SKY/WX    TMP DP  RH WIND       PRES   REMARKS
TOPEKA         SUNNY     77  56  48 VRB6      30.10R
MANHATTAN      MOSUNNY   77  52  41 E7        30.09R
EMPORIA        MOSUNNY   75  56  51 SE9       30.11R
CHANUTE        MOSUNNY   77  60  55 VRB6      30.11R
WICHITA        PTSUNNY   77  64  64 SE14      30.09S
OMAHA          MOSUNNY   77  56  48 CALM      30.06S
LINCOLN        SUNNY     79  51  37 SW3       30.08S
FALLS CITY     SUNNY     78  52  40 VRB3      30.09R
LAMONI         SUNNY     78  54  43 CALM      30.08R
DES MOINES     SUNNY     76  53  44 CALM      30.05R

$$




USA.gov is the U.S. government's official web portal to all federal, state and local government web resources and services.